Content
SEND FEEDBACK

Daily
Averages
Monthly
Summary
United States of America

ROCK HILL - WINTHROP COLLEGE, SOUTH CAROLINA


Home > North America > United States > South Carolina
Elevation: 690 feet     Latitude: 34 56N     Longitude: 081 02W

WEATHER
 
SELECT A DAY
Number of Records: 168,894;   Date Range: 1/20/99 - 9/30/14
 
SHARE

PRINT THIS DATA

[ ← Previous Day ]
WEATHER ALMANAC - JANUARY 31, 2013
[ Next Day → ]
[ °C ]   °F
Weather ElementAverageHighLow
Temperature44.1 °F50 °F (12:54 am)34 °F (7:54 pm)
Dewpoint29.4 °F46 °F (12:54 am)19.9 °F (6:54 pm)
Humidity59.1 %86 % (12:54 am)32 % (3:54 pm)
Barometer29.88 in30.07 in (11:54 pm)29.58 in (12:54 am)
Wind Speed12.4 mph25.3 mph (3:54 am)
Wind Gust34.5 mph (3:54 am)
Weather ElementAverage
Visibility10 mi
Wind DirectionWSW (258.1 °)

Weather ElementTotal
Precipitation0.01 in
Heating Degree Days23 (Base 65)
Averaged from 26 records on January 31, 2013
WEATHER CONDITIONS BREAKOUT
WIND DIRECTION BREAKOUT
WEATHER BY HOUR - JANUARY 31, 2013
[ °C ]   °F
Local TimeTemperatureDewpointHumidityBarometerVisibilityWind DirectionWind SpeedGust SpeedPrecipitationEventsConditions
12:54 AM50.0 °F46.0 °F86 %29.58 in10.0 miWSW (240°)17.3 mph28.8 mph0.01 inOvercast
1:12 AM50.0 °F46.0 °F86 %29.60 in10.0 miWSW (240°)12.7 mph20.7 mphOvercast
1:54 AM48.9 °F45.0 °F86 %29.59 in10.0 miWSW (250°)21.9 mph31.1 mphMostly Cloudy
2:54 AM48.0 °F42.1 °F80 %29.62 in10.0 miWSW (250°)17.3 mph32.2 mphOvercast
3:16 AM46.9 °F39.9 °F77 %29.66 in10.0 miWSW (250°)15.0 mph26.5 mphMostly Cloudy
3:54 AM45.0 °F37.0 °F74 %29.67 in10.0 miWSW (250°)25.3 mph34.5 mphClear
4:54 AM43.0 °F35.1 °F74 %29.72 in10.0 miWest (260°)16.1 mph32.2 mphClear
5:54 AM42.1 °F34.0 °F73 %29.76 in10.0 miWest (270°)12.7 mph21.9 mphScattered Clouds
6:54 AM39.9 °F33.1 °F77 %29.81 in10.0 miWest (270°)6.9 mphClear
7:54 AM39.0 °F32.0 °F76 %29.88 in10.0 miWest (270°)10.4 mphClear
8:54 AM39.9 °F28.9 °F65 %29.92 in10.0 miWest (280°)10.4 mphClear
9:54 AM43.0 °F27.0 °F53 %29.93 in10.0 miWest (260°)8.1 mphClear
10:54 AM44.1 °F26.1 °F49 %29.96 in10.0 miWSW (240°)12.7 mph19.6 mphClear
11:54 AM46.0 °F23.0 °F40 %29.95 in10.0 miWest (260°)13.8 mph23.0 mphClear
12:54 PM46.9 °F23.0 °F39 %29.94 in10.0 miNW (310°)10.4 mph23.0 mphClear
1:54 PM48.0 °F23.0 °F37 %29.94 in10.0 miWest (270°)16.1 mph23.0 mphClear
2:54 PM48.9 °F21.9 °F35 %29.95 in10.0 miWest (270°)15.0 mph24.2 mphPartly Cloudy
3:54 PM50.0 °F21.0 °F32 %29.97 in10.0 miWest (260°)15.0 mph25.3 mphClear
4:54 PM50.0 °F21.0 °F32 %29.98 in10.0 miWest (280°)11.5 mph18.4 mphClear
5:54 PM46.0 °F21.0 °F37 %30.01 in10.0 miNNW (330°)4.6 mphClear
6:54 PM44.1 °F19.9 °F38 %30.03 in10.0 miWest (280°)3.5 mphClear
7:54 PM34.0 °F25.0 °F70 %30.06 in10.0 miSSW (200°)8.1 mphClear
8:54 PM35.1 °F25.0 °F67 %30.05 in10.0 miSW (220°)8.1 mphClear
9:54 PM39.9 °F21.9 °F49 %30.06 in10.0 miWSW (240°)5.8 mphClear
10:54 PM39.0 °F23.0 °F53 %30.06 in10.0 miSW (230°)11.5 mphClear
11:54 PM39.9 °F23.0 °F51 %30.07 in10.0 miSW (230°)11.5 mph18.4 mphClear
Hourly data recorded from KUZA, located miles away from Rock Hill - Winthrop College, South Carolina







STORIES FROM OUR PARTNERS